SCP
0 0 0 0 0 0 0 0 0 0 0 0 0 0 0 0 0 0 0 0 0 0 0 0 0 0 0 0 0 0 0 0 0 0 0 0 0 0 0 0 0 0 0
0 0 0 0 0 0 0 0 0 0 0 0 0 0 0 0 0 0 0 0 0 0 0 0 0 0 0 0 0 0 0 0 0 0 0 0 0 0 0 0 0 0 0
0 0 0 0 0 0 0 0 0 0 0 0 0 0 0 0 0 0 0 0 0 0 0 0 0 0 0 0 0 0 0 0 0 0 0 0 0 0 0 0 0 0 0
0 0 0 0 0 0 0 0 0 0 0 0 0 0 0 0 0 0 0 0 0 0 0 0 0 0 0 0 0 0 0 0 0 0 0 0 0 0 0 0 0 0 0
0 0 0 0 0 0 0 0 0 0 0 0 0 0 0 0 0 0 0 0 0 0 0 0 0 0 0 0 0 0 0 0 0 0 0 0 0 0 0 0 0 0 0
0 0 0 0 0 0 0 0 0 0 0 0 0 0 0 0 0 0 0 0 0 0 0 0 0 0 0 0 0 0 0 0 0 0 0 0 0 0 0 0 0 0 0
0 0 0 0 0 0 0 0 0 0 0 0 0 0 0 0 0 0 0 0 0 0 0 0 0 0 0 0 0 0 0 0 0 0 0 0 0 0 0 0 0 0 0
0 0 0 0 0 0 0 0 0 0 0 0 0 0 0 0 0 0 0 0 0 0 0 0 0 0 0 0 0 0 0 0 0 0 0 0 0 0 0 0 0 0 0
0 0 0 0 0 0 0 0 0 0 0 0 0 0 0 0 0 0 0 0 0 0 0 0 0 0 0 0 0 0 0 0 0 0 0 0 0 0 0 0 0 0 0
0 0 0 0 0 0 0 0 0 0 0 0 0 0 0 0 0 0 0 0 0 0 0 0 0 0 0 0 0 0 0 0 0 0 0 0 0 0 0 0 0 0 0
0 0 0 0 0 0 0 0 0 0 0 0 0 0 0 0 0 0 0 0 0 0 0 0 0 0 0 0 0 0 0 0 0 0 0 0 0 0 0 0 0 0 0
0 0 0 0 0 0 0 0 0 0 0 0 0 0 0 0 0 0 0 0 0 0 0 0 0 0 0 0 0 0 0 0 0 0 0 0 0 0 0 0 0 0 0
0 0 0 0 0 0 0 0 0 0 0 0 0 0 0 0 0 0 0 0 0 0 0 0 0 0 0 0 0 0 0 0 0 0 0 0 0 0 0 0 0 0 0
0 0 0 0 0 0 0 0 0 0 0 0 0 0 0 0 0 0 0 0 0 0 0 0 0 0 0 0 0 0 0 0 0 0 0 0 0 0 0 0 0 0 0
0 0 0 0 0 0 0 0 0 0 0 0 0 0 0 0 0 0 0 0 0 0 0 0 0 0 0 0 0 0 0 0 0 0 0 0 0 0 0 0 0 0 0
0 0 0 0 0 0 0 0 0 0 0 0 0 0 0 0 0 0 0 0 0 0 0 0 0 0 0 0 0 0 0 0 0 0 0 0 0 0 0 0 0 0 0
0 0 0 0 0 0 0 0 0 0 0 0 0 0 0 0 0 0 0 0 0 0 0 0 0 0 0 0 0 0 0 0 0 0 0 0 0 0 0 0 0 0 0
0 0 0 0 0 0 0 0 0 0 0 0 0 0 0 0 0 0 0 0 0 0 0 0 0 0 0 0 0 0 0 0 0 0 0 0 0 0 0 0 0 0 0
0 0 0 0 0 0 0 0 0 0 0 0 0 0 0 0 0 0 0 0 0 0 0 0 0 0 0 0 0 0 0 0 0 0 0 0 0 0 0 0 0 0 0
0 0 0 0 0 0 0 0 0 0 0 0 0 0 0 0 0 0 0 0 0 0 0 0 0 0 0 0 0 0 0 0 0 0 0 0 0 0 0 0 0 0 0
0 0 0 0 0 0 0 0 0 0 0 0 0 0 0 0 0 0 0 0 0 0 0 0 0 0 0 0 0 0 0 0 0 0 0 0 0 0 0 0 0 0 0
0 0 0 0 0 0 0 0 0 0 0 0 0 0 0 0 0 0 0 0 0 0 0 0 0 0 0 0 0 0 0 0 0 0 0 0 0 0 0 0 0 0 0
0 0 0 0 0 0 0 0 0 0 0 0 0 0 0 0 0 0 0 0 0 0 0 0 0 0 0 -0 0 0 0 0 0 0 0 0 0 0 0 0 0 0 0
0 0 0 0 0 0 0 0 0 0 0 0 0 0 0 0 0 0 0 0 0 0 0 0 0 0 0 -0 0 0 0 0 0 0 0 0 0 0 0 0 0 0 0
0 0 0 0 0 0 0 0 0 0 0 0 0 0 0 0 0 0 0 0 0 0 0 0 0 0 0 0 0 0 0 0 0 0 0 0 0 0 0 0 0 0 0
0 0 0 0 0 0 0 0 0 0 0 0 0 0 0 0 0 0 0 0 0 0 0 0 0 0 0 0 0 0 0 0 0 0 0 0 0 0 0 0 0 0 0
Wind_Speed
16 15 14 14 14 14 13 14 15 15 15 15 14 13 11 9 7 4 3 1 1 2 2 3 3 2 1 1 1 2 3 4 4 4 2 2 4 4 4 3 4 5 5
16 16 15 15 15 14 14 14 14 15 15 15 14 13 12 10 7 5 4 2 1 1 1 2 3 2 2 2 1 1 2 3 4 5 3 2 3 4 5 5 4 4 4
16 15 14 14 14 14 15 14 14 14 14 15 15 14 13 11 9 6 4 3 2 2 3 3 3 3 2 1 2 2 1 1 2 3 3 2 2 2 4 3 4 3 3
15 14 14 13 14 14 14 14 14 13 13 14 14 14 14 11 10 9 8 7 6 6 6 5 4 3 3 3 3 2 1 1 1 2 3 2 2 2 4 5 3 2 3
14 13 13 12 12 12 13 13 13 12 12 12 12 13 14 12 10 11 9 9 8 8 9 8 8 9 7 5 4 3 3 2 1 1 1 2 2 2 3 3 4 3 3
13 13 13 12 12 11 12 12 12 11 11 10 10 11 12 11 18 18 12 9 9 9 8 8 8 10 13 14 13 11 8 5 3 2 1 1 2 1 2 3 4 4 3
13 13 13 12 12 11 12 12 12 11 10 9 8 8 9 12 18 16 14 7 6 5 6 6 6 7 8 7 9 12 12 13 11 4 4 4 3 3 2 3 3 3 3
12 13 13 13 12 11 11 12 11 9 9 8 7 7 6 10 16 14 10 5 3 3 4 5 5 6 6 7 6 7 8 8 8 6 4 4 4 4 4 3 3 4 4
12 13 13 13 13 11 12 12 9 8 8 9 9 8 7 8 14 13 9 4 4 3 3 4 5 5 10 10 7 6 7 6 9 11 10 9 7 6 4 3 2 3 3
13 13 12 12 12 10 11 10 9 7 8 9 10 9 9 9 15 14 9 4 4 3 4 4 6 7 9 9 5 4 5 4 5 6 9 12 11 13 13 7 3 2 2
13 12 12 12 11 10 9 8 9 9 8 8 8 8 9 12 16 19 14 3 2 2 2 3 3 8 8 7 6 3 6 6 5 6 6 7 7 7 7 7 6 4 3
12 12 12 10 10 11 10 9 9 8 8 7 6 6 6 8 13 16 19 15 7 2 1 1 2 6 7 7 4 6 10 8 5 5 6 6 6 6 5 5 6 6 4
12 11 10 10 9 10 9 8 8 7 8 7 5 5 5 5 8 16 18 17 14 4 2 3 1 5 7 5 8 11 9 5 5 5 5 5 4 4 4 4 5 5 4
11 11 9 7 8 9 8 8 8 7 8 8 8 8 6 6 6 5 5 6 9 6 4 4 6 6 5 6 8 7 5 5 5 5 4 3 3 4 5 4 4 4 3
9 10 9 8 7 6 8 7 10 7 11 10 7 7 7 6 9 14 9 5 3 2 0 1 2 2 3 4 4 4 4 5 5 4 3 3 4 4 4 4 3 3 2
10 9 8 7 6 6 5 6 12 14 17 18 17 14 10 13 16 16 17 15 11 8 5 3 3 3 3 3 3 3 3 3 3 3 3 2 3 3 2 2 2 2 2
9 10 8 8 7 7 7 7 7 9 14 15 16 17 15 15 15 15 14 15 14 12 6 4 3 2 2 1 1 1 1 2 2 2 2 1 1 1 2 2 2 2 3
10 12 12 8 7 6 6 7 7 7 7 6 10 15 15 14 13 13 13 10 7 7 4 3 3 2 1 0 1 1 1 1 1 1 1 0 0 1 1 2 2 3 4
11 9 9 8 8 7 7 7 7 8 7 6 6 8 12 11 10 10 9 4 3 3 3 4 3 3 2 1 1 1 1 2 2 1 1 2 2 2 2 3 3 6 5
11 19 18 12 9 9 9 9 8 8 7 7 6 6 6 5 2 2 2 1 1 1 2 2 2 2 2 1 1 1 1 2 2 2 2 3 3 3 3 4 4 4 4
11 14 21 15 10 10 9 9 8 8 8 8 7 9 12 4 2 2 2 1 1 2 2 2 2 3 2 2 2 2 3 3 3 3 3 3 3 3 4 4 5 5 5
11 12 11 11 11 10 10 9 8 8 8 10 7 9 13 5 3 3 3 2 2 2 3 3 3 3 3 3 3 3 4 4 4 4 4 4 4 5 5 5 5 5 5
11 12 12 11 11 15 13 9 9 9 9 8 8 7 7 5 4 4 4 3 3 3 3 3 3 3 3 4 4 4 4 5 5 5 5 5 5 6 6 6 7 7 7
11 12 13 12 12 11 11 11 10 9 9 8 7 7 6 5 4 4 4 3 3 3 3 3 3 5 6 5 4 4 5 6 7 7 9 9 9 8 7 8 9 10 9
11 12 13 12 13 12 12 11 10 9 8 7 6 6 5 4 4 4 3 3 3 3 4 4 3 4 6 8 7 7 12 17 17 11 9 10 11 11 11 11 10 10 10
12 13 13 12 12 13 13 12 11 9 7 5 4 3 3 3 3 3 2 2 2 3 4 4 5 6 8 7 10 14 19 20 21 21 11 8 9 9 10 9 11 11 11
Wind_Direction
352 350 350 349 344 340 339 337 335 333 329 327 325 322 319 316 312 306 288 309 38 29 44 57 40 24 7 331 156 159 169 158 184 230 228 207 172 175 168 172 159 146 155
349 348 349 347 343 340 339 337 337 338 336 334 333 331 328 322 317 308 294 275 191 164 107 79 47 43 35 9 34 132 167 177 176 205 219 189 188 185 166 160 153 148 143
347 347 347 346 342 339 338 338 341 343 346 348 348 345 344 341 340 345 350 9 44 84 97 98 84 86 78 57 57 64 89 164 171 186 210 188 172 153 136 123 118 113 117
345 344 344 342 339 338 339 341 344 346 351 354 354 352 349 352 2 9 21 30 40 49 56 64 68 87 110 104 80 54 51 78 137 177 190 179 161 148 142 141 127 102 86
340 339 336 335 336 339 340 343 345 348 351 354 356 357 355 355 13 24 25 32 38 43 42 40 40 44 61 73 82 60 50 50 55 133 170 156 149 146 159 146 136 120 69
338 336 334 335 337 340 342 344 344 344 345 349 353 356 357 355 9 29 36 31 36 40 38 33 35 37 33 35 44 50 52 53 40 36 45 115 97 81 101 125 130 137 132
337 337 337 338 339 339 342 344 341 337 338 337 340 349 351 345 357 12 29 32 35 43 48 42 39 38 45 32 31 40 42 48 53 50 43 41 54 29 64 82 82 90 105
339 339 340 340 339 339 343 342 338 334 334 331 328 330 333 339 348 355 13 20 23 52 65 64 53 34 52 50 49 59 55 48 54 58 68 60 62 51 54 78 89 94 80
342 341 340 341 339 341 344 341 336 336 340 340 341 337 334 334 347 3 28 17 31 46 69 77 66 37 45 54 56 65 59 42 46 62 70 70 75 97 105 90 96 103 104
340 337 337 339 338 339 341 338 336 335 343 348 354 360 1 350 354 8 35 34 29 33 45 48 59 49 39 60 57 62 68 51 43 61 67 63 57 56 59 54 54 88 102
336 335 336 338 335 340 336 334 337 339 341 344 349 356 0 360 356 357 14 32 36 47 59 38 21 35 33 51 60 40 71 80 62 76 76 65 58 51 44 40 39 46 66
334 335 333 336 341 346 335 334 336 338 338 330 334 344 348 348 350 347 359 11 30 38 39 358 355 37 43 52 54 60 69 71 66 72 69 59 52 45 37 37 42 45 48
335 333 330 339 340 340 337 335 336 340 338 333 334 338 337 340 338 346 351 355 3 16 327 302 10 55 57 38 56 72 68 61 65 69 67 58 45 38 35 30 26 24 26
332 330 329 337 339 336 339 343 340 340 340 352 355 345 332 328 323 323 329 337 344 354 359 5 26 47 69 70 68 61 54 69 75 69 64 48 37 40 39 24 15 9 15
329 328 329 335 327 328 336 338 340 333 344 354 348 342 339 331 336 350 355 337 322 292 42 62 47 48 74 80 76 70 64 64 68 66 56 46 40 36 27 13 5 4 358
332 331 326 326 326 327 319 326 336 340 344 348 347 346 341 346 353 3 6 8 12 34 63 57 58 60 69 72 77 75 72 78 80 77 66 47 38 22 7 353 352 347 324
319 321 316 321 319 320 322 322 320 325 334 341 343 343 344 347 356 4 14 20 27 44 48 43 42 45 58 77 94 107 107 102 104 90 84 61 21 5 352 344 340 327 308
309 310 311 299 296 298 301 303 304 308 312 315 328 334 339 346 356 3 15 24 23 32 31 27 18 10 5 359 183 171 163 156 150 148 154 191 288 305 308 312 311 301 302
308 300 296 290 287 289 294 295 293 294 294 297 299 313 328 339 354 6 22 26 18 21 20 17 9 3 358 348 318 249 211 217 215 208 220 233 241 249 267 278 280 298 306
302 303 306 301 296 298 296 292 289 286 286 285 284 285 294 302 305 330 354 350 4 343 338 337 334 333 333 323 304 287 269 259 249 238 240 240 240 239 251 259 258 262 262
299 299 304 306 300 297 293 286 281 276 274 276 274 278 285 257 225 243 255 251 262 281 289 292 294 298 295 283 270 265 260 257 249 243 242 240 236 237 241 245 251 254 259
300 303 307 310 310 307 302 294 287 281 278 278 275 279 287 274 225 232 241 247 251 256 261 265 268 266 260 257 253 250 250 251 248 242 241 240 237 239 242 245 249 251 254
318 321 321 318 314 313 314 304 295 287 280 274 271 269 267 256 239 232 233 240 246 255 262 262 265 267 263 253 246 240 241 245 242 236 236 242 241 241 240 243 248 251 254
331 326 322 320 318 314 310 305 299 291 283 275 267 262 257 247 240 238 233 235 239 247 253 258 262 267 273 270 257 249 243 249 246 241 236 239 244 246 243 243 245 247 248
331 328 326 324 321 319 315 311 304 295 285 276 265 256 250 242 231 231 231 232 240 248 255 259 262 270 276 277 274 268 276 281 277 263 237 235 240 241 242 243 245 246 244
333 332 330 327 328 330 331 329 324 316 300 284 272 255 243 238 230 223 223 227 243 255 261 264 266 272 277 280 280 285 291 292 289 288 278 248 237 238 238 242 242 243 244